Weather History for Taos, NM

Change the Weather History Date:

Monday, June 24, 2013

  Actual Average Record
Temperature  
Mean Temperature 65 °F -  
Max Temperature 86 °F 81 °F 91 °F (2011)
Min Temperature 44 °F 44 °F 39 °F (1997)
Growing Degree Days 15 (Base 50)    
Moisture  
Dew Point 15 °F    
Average Humidity 13    
Maximum Humidity 23    
Minimum Humidity 9    
Precipitation  
Precipitation 0.00 in - - ()
Sea Level Pressure  
Sea Level Pressure 30.13 in    
Wind  
Wind Speed 9 mph (West)    
Max Wind Speed 26 mph    
Max Gust Speed 38 mph    
Visibility 10 miles    
Events      
Averages and records for this station are not official NWS values.
T = Trace of Precipitation, MM = Missing Value Source: NWS Daily Summary

Daily Weather History Graph

Daily Weather History Graph

Search for Another Location

Airport:

Trip Planner

Search our weather history database for the weather conditions in past years. The results will help you decide how hot, cold, wet, or windy it might be!

Date:

Astronomy

Jun. 24, 2013 Rise Set
Actual Time 5:45 AM MDT 8:24 PM MDT
Civil Twilight 5:15 AM MDT 8:55 PM MDT
Nautical Twilight 4:37 AM MDT 9:33 PM MDT
Astronomical Twilight 3:54 AM MDT 10:15 PM MDT
Moon 9:32 PM MDT (6/24) 7:13 AM MDT (6/24)
Length of Visible Light 15h 39m
Length of Day
14h 38m
Full, 97% of the Moon is Illuminated
Jun 24
Full
Jun 29
Last Quarter
Jul 8
New
Jul 15
First Quarter
Jul 22
Full

Hourly Weather History & Observations

Time (MDT) Temp. Windchill Dew Point Humidity Pressure Visibility Wind Dir Wind Speed Gust Speed Precip Events Conditions
12:15 AM 59.0 °F - 8.6 °F 14% 30.08 in 10.0 mi ENE 8.1 mph - N/A   Clear
12:35 AM 57.2 °F - 8.6 °F 14% 30.08 in 10.0 mi ENE 9.2 mph - N/A   Clear
12:55 AM 55.4 °F - 8.6 °F 15% 30.08 in 10.0 mi ENE 10.4 mph - N/A   Clear
1:15 AM 53.6 °F - 8.6 °F 16% 30.09 in 10.0 mi Calm Calm - N/A   Clear
1:35 AM 55.4 °F - 12.2 °F 18% 30.10 in 10.0 mi NW 4.6 mph - N/A   Clear
1:55 AM 50.0 °F - 6.8 °F 17% 30.10 in 10.0 mi North 4.6 mph - N/A   Clear
2:15 AM 53.6 °F - 8.6 °F 16% 30.11 in 10.0 mi NE 5.8 mph - N/A   Clear
2:35 AM 51.8 °F - 8.6 °F 18% 30.12 in 10.0 mi ESE 4.6 mph - N/A   Clear
2:55 AM 50.0 °F - 6.8 °F 17% 30.13 in 10.0 mi Calm Calm - N/A   Clear
3:15 AM 51.8 °F - 10.4 °F 19% 30.13 in 10.0 mi ESE 8.1 mph - N/A   Clear
3:35 AM 51.8 °F - 10.4 °F 19% 30.14 in 10.0 mi East 6.9 mph - N/A   Clear
3:55 AM 51.8 °F - 8.6 °F 18% 30.14 in 10.0 mi ENE 5.8 mph - N/A   Clear
4:15 AM 53.6 °F - 12.2 °F 19% 30.13 in 10.0 mi ENE 8.1 mph - N/A   Clear
4:35 AM 53.6 °F - 10.4 °F 18% 30.13 in 10.0 mi ENE 6.9 mph - N/A   Clear
4:55 AM 44.6 °F 40.7 °F 5.0 °F 20% 30.14 in 10.0 mi North 6.9 mph - N/A   Clear
5:15 AM 44.6 °F 42.2 °F 6.8 °F 21% 30.13 in 10.0 mi North 4.6 mph - N/A   Clear
5:35 AM 44.6 °F - 8.6 °F 23% 30.14 in 10.0 mi Calm Calm - N/A   Clear
5:55 AM 48.2 °F - 10.4 °F 22% 30.14 in 10.0 mi North 5.8 mph - N/A   Clear
6:15 AM 46.4 °F 44.3 °F 10.4 °F 23% 30.14 in 10.0 mi NNE 4.6 mph - N/A   Clear
6:35 AM 51.8 °F - 12.2 °F 21% 30.15 in 10.0 mi NE 4.6 mph - N/A   Clear
6:55 AM 51.8 °F - 12.2 °F 21% 30.15 in 10.0 mi Calm Calm - N/A   Clear
7:15 AM 57.2 °F - 15.8 °F 20% 30.16 in 10.0 mi Calm Calm - N/A   Clear
7:35 AM 60.8 °F - 15.8 °F 17% 30.17 in 10.0 mi Calm Calm - N/A   Clear
7:55 AM 62.6 °F - 15.8 °F 16% 30.18 in 10.0 mi Calm Calm - N/A   Clear
8:15 AM 66.2 °F - 17.6 °F 15% 30.18 in 10.0 mi Calm Calm - N/A   Clear
8:35 AM 68.0 °F - 15.8 °F 13% 30.19 in 10.0 mi South 3.5 mph - N/A   Clear
8:55 AM 69.8 °F - 15.8 °F 13% 30.19 in 10.0 mi SSW 6.9 mph - N/A   Clear
9:15 AM 71.6 °F - 17.6 °F 13% 30.19 in 10.0 mi WSW 8.1 mph - N/A   Clear
9:35 AM 71.6 °F - 17.6 °F 13% 30.19 in 10.0 mi WSW 6.9 mph - N/A   Clear
9:55 AM 73.4 °F - 17.6 °F 12% 30.18 in 10.0 mi SW 9.2 mph - N/A   Clear
10:15 AM 75.2 °F - 17.6 °F 11% 30.17 in 10.0 mi WSW 12.7 mph - N/A   Clear
10:35 AM 77.0 °F - 19.4 °F 12% 30.17 in 10.0 mi West 11.5 mph 19.6 mph N/A   Clear
10:55 AM 78.8 °F - 19.4 °F 11% 30.17 in 10.0 mi WSW 12.7 mph 23.0 mph N/A   Clear
11:15 AM 78.8 °F - 19.4 °F 11% 30.17 in 10.0 mi SW 16.1 mph 24.2 mph N/A   Clear
11:35 AM 78.8 °F - 19.4 °F 11% 30.16 in 10.0 mi WSW 18.4 mph 25.3 mph N/A   Clear
11:55 AM 78.8 °F - 19.4 °F 11% 30.16 in 10.0 mi West 5.8 mph 21.9 mph N/A   Clear
12:15 PM 80.6 °F - 21.2 °F 11% 30.15 in 10.0 mi SW 17.3 mph 26.5 mph N/A   Clear
12:35 PM 80.6 °F - 21.2 °F 11% 30.14 in 10.0 mi SW 20.7 mph 25.3 mph N/A   Clear
12:55 PM 82.4 °F - 21.2 °F 10% 30.13 in 10.0 mi West 21.9 mph 28.8 mph N/A   Clear
1:15 PM 82.4 °F - 21.2 °F 10% 30.13 in 10.0 mi West 17.3 mph 29.9 mph N/A   Clear
1:35 PM 82.4 °F - 21.2 °F 10% 30.12 in 10.0 mi WSW 10.4 mph 29.9 mph N/A   Clear
1:55 PM 82.4 °F - 21.2 °F 10% 30.11 in 10.0 mi SW 16.1 mph 28.8 mph N/A   Clear
2:15 PM 84.2 °F - 21.2 °F 10% 30.11 in 7.0 mi West 16.1 mph 32.2 mph N/A   Clear
2:35 PM 84.2 °F - 23.0 °F 11% 30.10 in 10.0 mi WSW 18.4 mph 38.0 mph N/A   Clear
2:55 PM 84.2 °F - 23.0 °F 11% 30.10 in 10.0 mi WSW 23.0 mph 28.8 mph N/A   Clear
3:15 PM 84.2 °F - 23.0 °F 11% 30.10 in 10.0 mi West 26.5 mph 34.5 mph N/A   Clear
3:35 PM 84.2 °F - 24.8 °F 11% 30.09 in 10.0 mi West 24.2 mph 32.2 mph N/A   Clear
3:55 PM 86.0 °F - 24.8 °F 11% 30.09 in 10.0 mi WSW 19.6 mph 32.2 mph N/A   Clear
4:15 PM 86.0 °F - 23.0 °F 10% 30.08 in 10.0 mi WSW 24.2 mph 29.9 mph N/A   Clear
4:35 PM 82.4 °F - 21.2 °F 10% 30.08 in 10.0 mi West 23.0 mph 33.4 mph N/A   Clear
4:55 PM 82.4 °F - 21.2 °F 10% 30.08 in 10.0 mi WNW 15.0 mph - N/A   Clear
5:15 PM 84.2 °F - 23.0 °F 11% 30.07 in 10.0 mi West 24.2 mph 32.2 mph N/A   Clear
5:35 PM 80.6 °F - 21.2 °F 11% 30.07 in 10.0 mi West 15.0 mph - N/A   Clear
5:55 PM 82.4 °F - 21.2 °F 10% 30.07 in 10.0 mi West 20.7 mph 32.2 mph N/A   Clear
6:15 PM 82.4 °F - 21.2 °F 10% 30.07 in 10.0 mi West 19.6 mph 32.2 mph N/A   Clear
6:35 PM 84.2 °F - 23.0 °F 11% 30.07 in 10.0 mi West 23.0 mph 28.8 mph N/A   Clear
6:55 PM 80.6 °F - 19.4 °F 10% 30.08 in 10.0 mi West 25.3 mph 29.9 mph N/A   Clear
7:15 PM 80.6 °F - 21.2 °F 11% 30.07 in 10.0 mi West 20.7 mph 24.2 mph N/A   Clear
7:35 PM 80.6 °F - 19.4 °F 10% 30.08 in 10.0 mi West 23.0 mph 29.9 mph N/A   Clear
7:55 PM 78.8 °F - 17.6 °F 10% 30.09 in 10.0 mi West 15.0 mph - N/A   Clear
8:15 PM 73.4 °F - 15.8 °F 11% 30.10 in 10.0 mi West 12.7 mph - N/A   Clear
8:35 PM 71.6 °F - 15.8 °F 12% 30.11 in 10.0 mi WNW 10.4 mph - N/A   Clear
8:55 PM 69.8 °F - 12.2 °F 11% 30.12 in 10.0 mi WNW 8.1 mph - N/A   Clear
9:15 PM 66.2 °F - 10.4 °F 11% 30.12 in 10.0 mi NW 6.9 mph - N/A   Clear
9:35 PM 64.4 °F - 8.6 °F 11% 30.13 in 10.0 mi NW 6.9 mph - N/A   Clear
9:55 PM 66.2 °F - 8.6 °F 11% 30.14 in 10.0 mi NW 3.5 mph - N/A   Clear
10:15 PM 64.4 °F - 8.6 °F 11% 30.15 in 10.0 mi Calm Calm - N/A   Clear
10:35 PM 55.4 °F - 1.4 °F 11% 30.15 in 10.0 mi ESE 5.8 mph - N/A   Clear
10:55 PM 57.2 °F - 3.2 °F 11% 30.15 in 10.0 mi East 4.6 mph - N/A   Clear
11:15 PM 55.4 °F - 1.4 °F 11% 30.15 in 10.0 mi East 3.5 mph - N/A   Clear
11:35 PM 62.6 °F - 3.2 °F 9% 30.15 in 10.0 mi SE 4.6 mph - N/A   Clear
11:55 PM 62.6 °F - 6.8 °F 11% 30.15 in 10.0 mi ESE 9.2 mph - N/A   Clear